�������r�C�����j�^�v���󋵏��
Date,Time,5�C6���@���p�r�C��,����,����(m/s)
2022/03/06,00:00,4.0,���k��,16.4
2022/03/06,00:10,4.1,���k��,17.4
2022/03/06,00:20,3.9,���k��,11.6
2022/03/06,00:30,4.1,���k��,14.2
2022/03/06,00:40,4.1,���k��,14.4
2022/03/06,00:50,4.0,��,15.8
2022/03/06,01:00,3.9,��,10.3
2022/03/06,01:10,4.0,���k��,12.5
2022/03/06,01:20,4.1,���k��,14.9
2022/03/06,01:30,4.0,��,16.0
2022/03/06,01:40,4.1,��,13.2
2022/03/06,01:50,3.9,��,14.2
2022/03/06,02:00,4.1,��,11.7
2022/03/06,02:10,4.0,���k��,9.6
2022/03/06,02:20,4.0,���k��,12.8
2022/03/06,02:30,4.0,��,9.4
2022/03/06,02:40,3.8,��,10.4
2022/03/06,02:50,4.0,��,7.0
2022/03/06,03:00,4.0,��,10.4
2022/03/06,03:10,4.2,��,8.2
2022/03/06,03:20,4.2,��,9.6
2022/03/06,03:30,4.0,���k��,8.8
2022/03/06,03:40,4.0,���k��,11.6
2022/03/06,03:50,4.1,���k��,8.9
2022/03/06,04:00,4.0,���k��,8.4
2022/03/06,04:10,3.9,���k��,8.8
2022/03/06,04:20,3.9,�k��,6.1
2022/03/06,04:30,4.1,�k��,5.5
2022/03/06,04:40,4.1,�k��,6.8
2022/03/06,04:50,4.1,���k��,5.4
2022/03/06,05:00,4.0,���k��,5.3
2022/03/06,05:10,4.0,��,8.4
2022/03/06,05:20,4.0,��,7.1
2022/03/06,05:30,4.2,��,6.9
2022/03/06,05:40,4.0,��,6.1
2022/03/06,05:50,4.1,���k��,5.5
2022/03/06,06:00,4.1,���k��,7.0
2022/03/06,06:10,4.2,��,4.4
2022/03/06,06:20,4.1,���k��,4.6
2022/03/06,06:30,4.1,��,5.4
2022/03/06,06:40,4.0,��,4.5
2022/03/06,06:50,4.0,���k��,5.4
2022/03/06,07:00,4.1,���k��,5.7
2022/03/06,07:10,4.0,���k��,7.5
2022/03/06,07:20,3.9,���k��,6.1
2022/03/06,07:30,4.1,���k��,5.6
2022/03/06,07:40,4.2,���k��,5.8
2022/03/06,07:50,4.1,���k��,3.5
2022/03/06,08:00,4.0,�k��,3.1
2022/03/06,08:10,4.2,��,4.2
2022/03/06,08:20,3.9,�k,1.5
2022/03/06,08:30,4.0,�k�k��,2.9
2022/03/06,08:40,4.0,���k��,6.1
2022/03/06,08:50,4.0,��,7.6
2022/03/06,09:00,4.1,��,9.0
2022/03/06,09:10,4.0,���k��,6.9
2022/03/06,09:20,4.1,���k��,7.8
2022/03/06,09:30,4.1,���k��,9.1
2022/03/06,09:40,4.1,��,9.0
2022/03/06,09:50,4.2,��,9.5
2022/03/06,10:00,4.1,��,8.7
2022/03/06,10:10,4.0,���k��,6.7
2022/03/06,10:20,4.1,���k��,5.4
2022/03/06,10:30,4.2,�k��,6.1
2022/03/06,10:40,4.1,�k��,3.6
2022/03/06,10:50,4.1,��,12.5
2022/03/06,11:00,4.0,��,9.8
2022/03/06,11:10,4.1,��,9.1
2022/03/06,11:20,4.2,���k��,9.0
2022/03/06,11:30,3.7,��,14.7
2022/03/06,11:40,4.1,��,13.1
2022/03/06,11:50,4.2,��,11.6
2022/03/06,12:00,4.1,��,12.1
2022/03/06,12:10,4.3,��,10.3
2022/03/06,12:20,4.0,���k��,12.8
2022/03/06,12:30,4.1,���k��,12.7
2022/03/06,12:40,4.0,���k��,10.8
2022/03/06,12:50,4.0,���k��,13.1
2022/03/06,13:00,4.2,��,11.6
2022/03/06,13:10,4.0,��,13.8
2022/03/06,13:20,3.9,���k��,10.7
2022/03/06,13:30,4.2,��,8.9
2022/03/06,13:40,4.1,��,9.6
2022/03/06,13:50,4.1,���쐼,11.9
2022/03/06,14:00,3.9,��,10.3
2022/03/06,14:10,4.0,��,9.5
2022/03/06,14:20,4.1,��,12.4
2022/03/06,14:30,3.9,��,15.5
2022/03/06,14:40,4.0,��,12.5
2022/03/06,14:50,4.3,��,13.0
2022/03/06,15:00,4.1,��,12.2
2022/03/06,15:10,4.1,��,13.8
2022/03/06,15:20,4.0,���k��,12.7
2022/03/06,15:30,4.1,��,16.3
2022/03/06,15:40,3.9,��,13.8
2022/03/06,15:50,4.3,��,15.3
2022/03/06,16:00,3.8,���k��,10.7
2022/03/06,16:10,4.0,��,10.6
2022/03/06,16:20,4.1,��,9.6
2022/03/06,16:30,3.9,��,8.7
2022/03/06,16:40,4.1,���k��,11.9
2022/03/06,16:50,3.9,���k��,10.2
2022/03/06,17:00,4.0,���k��,8.2
2022/03/06,17:10,4.1,��,4.3
2022/03/06,17:20,4.1,���k��,5.9
2022/03/06,17:30,4.0,���k��,6.2
2022/03/06,17:40,4.1,��,7.0
2022/03/06,17:50,3.9,��,7.6
2022/03/06,18:00,4.0,��,9.3
2022/03/06,18:10,4.0,���k��,7.7
2022/03/06,18:20,4.2,���k��,6.6
2022/03/06,18:30,4.1,�k��,5.6
2022/03/06,18:40,4.1,���k��,4.5
2022/03/06,18:50,4.0,���k��,6.6
2022/03/06,19:00,4.0,���k��,11.3
2022/03/06,19:10,4.0,���k��,7.1
2022/03/06,19:20,4.0,���k��,9.5
2022/03/06,19:30,4.1,���k��,9.3
2022/03/06,19:40,4.1,���k��,9.3
2022/03/06,19:50,3.9,��,9.8
2022/03/06,20:00,4.2,���k��,10.2
2022/03/06,20:10,4.2,���k��,11.4
2022/03/06,20:20,4.0,��,10.0
2022/03/06,20:30,4.0,���k��,8.6
2022/03/06,20:40,4.1,���k��,7.2
2022/03/06,20:50,3.8,���k��,8.3
2022/03/06,21:00,4.0,���k��,8.9
2022/03/06,21:10,4.1,��,7.9
2022/03/06,21:20,4.1,���k��,10.8
2022/03/06,21:30,4.0,���k��,11.7
2022/03/06,21:40,4.2,���k��,9.9
2022/03/06,21:50,4.2,���k��,9.3
2022/03/06,22:00,4.1,���k��,9.9
2022/03/06,22:10,4.1,���k��,8.6
2022/03/06,22:20,3.9,���k��,5.9
2022/03/06,22:30,4.0,���k��,8.2
2022/03/06,22:40,4.0,���k��,7.2
2022/03/06,22:50,4.1,���k��,6.6
2022/03/06,23:00,4.0,���k��,6.1
2022/03/06,23:10,4.1,���k��,6.2
2022/03/06,23:20,4.1,���k��,6.5
2022/03/06,23:30,4.0,���k��,7.1
2022/03/06,23:40,4.1,���k��,6.9
2022/03/06,23:50,4.0,���k��,4.6
